Kuchera_Ratio
0.0 0.0 0.0 0.0 0.0 0.0 0.0 0.0 0.0 0.0 0.0 0.0 0.0 0.0 0.0 0.0 0.0 0.0 0.0 0.0 0.0 0.0
0.0 0.0 0.0 0.0 0.0 0.0 0.0 0.0 0.0 0.0 0.0 0.0 0.0 0.0 0.0 0.0 0.0 0.0 0.0 0.0 0.0 0.0
0.0 0.0 0.0 0.0 0.0 0.0 0.0 0.0 0.0 0.0 0.0 0.0 0.0 0.0 0.0 0.0 0.0 0.0 0.0 0.0 0.0 0.0
0.0 0.0 0.0 0.0 0.0 0.0 0.0 0.0 0.0 0.0 0.0 0.0 0.0 0.0 0.0 0.0 0.0 0.0 0.0 0.0 0.0 0.0
0.0 0.0 0.0 0.0 0.0 0.0 0.0 0.0 0.0 0.0 0.0 0.0 0.0 0.0 0.0 0.0 0.0 0.0 0.0 0.0 0.0 0.0
0.0 0.0 0.0 0.0 0.0 0.0 0.0 0.0 0.0 0.0 0.0 0.0 0.0 0.0 0.0 0.0 0.0 0.0 0.0 0.0 0.0 0.0
0.0 0.0 0.0 0.0 0.0 0.0 0.0 0.0 0.1 0.0 0.0 0.0 0.0 0.0 0.0 0.0 0.1 0.7 0.1 0.0 0.0 0.0
0.0 0.0 0.0 0.1 0.7 0.3 0.3 0.0 0.0 0.3 0.0 0.0 0.0 0.0 0.0 0.0 1.7 2.7 1.7 0.0 0.0 0.0
0.0 0.0 0.7 1.4 1.5 1.9 2.2 2.1 2.3 0.0 0.0 0.0 0.0 0.0 0.0 0.5 1.9 1.1 1.1 1.7 0.3 0.0
0.0 0.1 1.5 1.9 2.7 3.0 3.2 4.3 2.5 0.5 0.0 0.3 0.0 0.0 0.3 1.4 1.9 2.3 2.9 2.3 2.3 1.3
0.0 1.3 2.1 3.3 4.4 4.6 5.2 5.5 4.7 3.5 2.5 2.3 0.3 0.7 0.7 2.2 1.3 1.9 1.9 2.1 2.3 2.7
0.7 2.1 3.3 5.0 5.5 6.1 6.4 6.2 5.3 3.9 3.7 4.1 3.9 1.7 1.7 2.7 3.3 3.7 3.7 2.1 2.1 2.3
1.3 2.7 5.0 5.6 6.3 6.5 6.9 6.3 5.1 3.5 4.3 1.9 2.7 2.1 2.3 2.9 4.5 6.3 6.1 4.7 3.3 3.5
2.5 3.7 5.3 6.1 6.8 7.6 7.7 7.8 7.6 6.7 4.3 4.3 2.9 3.5 2.9 3.3 5.5 6.9 7.9 8.1 7.7 5.9